Weather History for KMOB - November, 2011

Change the Weather History Date:

Thursday, November 10, 2011

  Actual Average Record
Temperature  
Mean Temperature 51 °F 61 °F  
Max Temperature 61 °F 72 °F 81 °F (1988)
Min Temperature 40 °F 50 °F 28 °F (1991)
Degree Days  
Heating Degree Days 14 6  
Month to date heating degree days 52 46  
Since 1 July heating degree days 144 101  
Cooling Degree Days 0 2  
Month to date cooling degree days 6 21  
Year to date cooling degree days 2794 2483  
Growing Degree Days 2 (Base 50)    
Moisture  
Dew Point 34 °F    
Average Humidity 58    
Maximum Humidity 83    
Minimum Humidity 32    
Precipitation  
Precipitation 0.00 in 0.18 in 3.14 in (1919)
Month to date precipitation 0.23 1.71  
Year to date precipitation 45.88 57.67  
Snow  
Snow 0.00 in 0.00 in 0.00 in (2002)
Month to date snowfall 0.0 0.0  
Since 1 July snowfall 0.0 0.0  
Snow Depth 0.00 in    
Sea Level Pressure  
Sea Level Pressure 30.18 in    
Wind  
Wind Speed 13 mph (NNW)    
Max Wind Speed 26 mph    
Max Gust Speed 36 mph    
Visibility 10 miles    
Events      
T = Trace of Precipitation, MM = Missing Value Source: NWS Daily Summary

Daily Weather History Graph

Daily Weather History Graph

Search for Another Location

Airport or City:

Trip Planner

Search our weather history database for the weather conditions in past years. The results will help you decide how hot, cold, wet, or windy it might be!

Date:

Astronomy

Nov. 10, 2011 Rise Set
Actual Time 6:14 AM CST 4:58 PM CST
Civil Twilight 5:49 AM CST 5:23 PM CST
Nautical Twilight 5:20 AM CST 5:52 PM CST
Astronomical Twilight 4:52 AM CST 6:21 PM CST
Moon 4:50 PM CST (11/10) 6:04 AM CST (11/10)
Length of Visible Light 11h 34m
Length of Day
10h 43m
Full, 100% of the Moon is Illuminated
Nov 10
Full
Nov 10
Full
Nov 18
Last Quarter
Nov 25
New
Dec 2
First Quarter

Hourly Weather History & Observations

Time (CST) Temp. Windchill Dew Point Humidity Pressure Visibility Wind Dir Wind Speed Gust Speed Precip Events Conditions
12:56 AM 51.1 °F - 45.0 °F 80% 30.11 in 10.0 mi NNW 12.7 mph 20.7 mph N/A   Partly Cloudy
1:56 AM 50.0 °F - 44.1 °F 80% 30.12 in 10.0 mi NNW 13.8 mph 19.6 mph N/A   Partly Cloudy
2:56 AM 48.9 °F - 43.0 °F 80% 30.12 in 10.0 mi NNW 15.0 mph - N/A   Scattered Clouds
3:56 AM 48.0 °F - 41.0 °F 77% 30.11 in 10.0 mi NNW 16.1 mph 25.3 mph N/A   Partly Cloudy
4:56 AM 48.0 °F - 39.0 °F 71% 30.14 in 10.0 mi North 15.0 mph 24.2 mph N/A   Partly Cloudy
5:56 AM 48.0 °F - 37.0 °F 66% 30.17 in 10.0 mi North 13.8 mph 24.2 mph N/A   Mostly Cloudy
6:56 AM 48.0 °F - 34.0 °F 58% 30.18 in 10.0 mi North 16.1 mph 24.2 mph N/A   Mostly Cloudy
7:56 AM 48.0 °F - 34.0 °F 58% 30.22 in 10.0 mi North 12.7 mph 23.0 mph N/A   Overcast
8:56 AM 48.9 °F - 34.0 °F 56% 30.21 in 10.0 mi North 16.1 mph 21.9 mph N/A   Overcast
9:56 AM 50.0 °F - 33.8 °F 54% 30.20 in 10.0 mi North 17.3 mph 26.5 mph N/A   Overcast
10:56 AM 52.0 °F - 33.1 °F 49% 30.20 in 10.0 mi North 18.4 mph 31.1 mph N/A   Overcast
11:56 AM 53.1 °F - 33.1 °F 47% 30.18 in 10.0 mi North 20.7 mph 27.6 mph N/A   Overcast
12:56 PM 55.9 °F - 34.0 °F 44% 30.15 in 10.0 mi North 18.4 mph 25.3 mph N/A   Overcast
1:56 PM 57.9 °F - 34.0 °F 41% 30.13 in 10.0 mi NNW 13.8 mph 23.0 mph N/A   Mostly Cloudy
2:56 PM 61.0 °F - 32.0 °F 34% 30.14 in 10.0 mi NNW 15.0 mph 28.8 mph N/A   Mostly Cloudy
3:56 PM 60.1 °F - 30.9 °F 33% 30.13 in 10.0 mi NNW 13.8 mph 20.7 mph N/A   Mostly Cloudy
4:56 PM 55.0 °F - 30.0 °F 38% 30.15 in 10.0 mi NNW 8.1 mph - N/A   Scattered Clouds
5:56 PM 51.1 °F - 28.9 °F 43% 30.18 in 10.0 mi NW 6.9 mph - N/A   Partly Cloudy
6:56 PM 48.0 °F - 30.0 °F 50% 30.20 in 10.0 mi NW 5.8 mph - N/A   Clear
7:56 PM 46.4 °F 42.9 °F 30.2 °F 53% 30.22 in 10.0 mi NW 6.9 mph - N/A   Clear
8:56 PM 45.0 °F 41.2 °F 28.9 °F 53% 30.24 in 10.0 mi NW 6.9 mph - N/A   Clear
9:56 PM 43.0 °F 41.3 °F 28.9 °F 58% 30.25 in 10.0 mi NW 3.5 mph - N/A   Clear
10:56 PM 42.1 °F 37.1 °F 30.0 °F 62% 30.25 in 10.0 mi North 8.1 mph - N/A   Clear
11:56 PM 42.1 °F 36.1 °F 28.0 °F 58% 30.25 in 10.0 mi NNW 10.4 mph - N/A   Clear